contact:dominique.lefevre@mio.osupytheas.fr, maurice.libes@osupytheas.fr, didier.mallarino@osupytheas.fr
Project:EMSO http://www.emso-fr.org/EMSO-France
Depth: 2436.0 m
Title:EMSO Ligure Ouest : Data MII capteur MICROCAT
DateTime_Computer,Latitude,Longitude,Temperature,Conductivity,Pressure,DateTime_Instrument
DateTime_Computer,Latitude,Longitude,degC,S m-1,dbar,DateTime_Instrument
2022-04-20T00:00:54Z,42.805,6.029,13.3000,4.60044,2470.483,2022-4-20T02:02:32Z
2022-04-20T00:03:57Z,42.805,6.029,13.3004,4.60053,2470.45,2022-4-20T02:05:36Z
2022-04-20T00:07:00Z,42.805,6.029,13.3004,4.60048,2470.497,2022-4-20T02:08:39Z
2022-04-20T00:10:03Z,42.805,6.029,13.3006,4.60042,2470.474,2022-4-20T02:11:42Z
2022-04-20T00:13:06Z,42.805,6.029,13.3006,4.60044,2470.483,2022-4-20T02:14:45Z
2022-04-20T00:16:09Z,42.805,6.029,13.2998,4.60043,2470.497,2022-4-20T02:17:48Z
2022-04-20T00:19:12Z,42.805,6.029,13.3004,4.60045,2470.483,2022-4-20T02:20:51Z
2022-04-20T00:22:16Z,42.805,6.029,13.3009,4.60047,2470.46,2022-4-20T02:23:54Z
2022-04-20T00:25:19Z,42.805,6.029,13.3006,4.60053,2470.437,2022-4-20T02:26:57Z
2022-04-20T00:28:22Z,42.805,6.029,13.2999,4.60043,2470.437,2022-4-20T02:30:01Z
2022-04-20T00:31:25Z,42.805,6.029,13.3005,4.60045,2470.46,2022-4-20T02:33:04Z
2022-04-20T00:34:28Z,42.805,6.029,13.3002,4.60039,2470.45,2022-4-20T02:36:07Z
2022-04-20T00:37:31Z,42.805,6.029,13.3001,4.60041,2470.437,2022-4-20T02:39:10Z
2022-04-20T00:40:34Z,42.805,6.029,13.3005,4.60047,2470.437,2022-4-20T02:42:13Z
2022-04-20T00:43:37Z,42.805,6.029,13.3000,4.60060,2470.45,2022-4-20T02:45:16Z
2022-04-20T00:46:40Z,42.805,6.029,13.3006,4.60045,2470.46,2022-4-20T02:48:19Z
2022-04-20T00:49:44Z,42.805,6.029,13.3007,4.60052,2470.46,2022-4-20T02:51:22Z
2022-04-20T00:52:47Z,42.805,6.029,13.3004,4.60057,2470.437,2022-4-20T02:54:25Z
2022-04-20T00:55:50Z,42.805,6.029,13.3003,4.60044,2470.413,2022-4-20T02:57:29Z
2022-04-20T00:58:53Z,42.805,6.029,13.3004,4.60040,2470.45,2022-4-20T03:00:32Z
2022-04-20T01:01:56Z,42.805,6.029,13.3004,4.60045,2470.366,2022-4-20T03:03:35Z
2022-04-20T01:04:59Z,42.805,6.029,13.3004,4.60045,2470.413,2022-4-20T03:06:38Z
2022-04-20T01:08:02Z,42.805,6.029,13.3020,4.60056,2470.39,2022-4-20T03:09:41Z
2022-04-20T01:11:05Z,42.805,6.029,13.3009,4.60051,2470.46,2022-4-20T03:12:44Z
2022-04-20T01:14:09Z,42.805,6.029,13.3006,4.60047,2470.413,2022-4-20T03:15:47Z
2022-04-20T01:17:12Z,42.805,6.029,13.3001,4.60046,2470.404,2022-4-20T03:18:50Z
2022-04-20T01:20:15Z,42.805,6.029,13.3001,4.60043,2470.404,2022-4-20T03:21:54Z
2022-04-20T01:23:18Z,42.805,6.029,13.3006,4.60049,2470.38,2022-4-20T03:24:57Z
2022-04-20T01:26:21Z,42.805,6.029,13.3000,4.60045,2470.366,2022-4-20T03:28:00Z
2022-04-20T01:29:24Z,42.805,6.029,13.3006,4.60055,2470.366,2022-4-20T03:31:03Z
2022-04-20T01:32:27Z,42.805,6.029,13.3003,4.60053,2470.404,2022-4-20T03:34:06Z
2022-04-20T01:35:30Z,42.805,6.029,13.3003,4.60046,2470.39,2022-4-20T03:37:09Z
2022-04-20T01:38:33Z,42.805,6.029,13.3000,4.60043,2470.366,2022-4-20T03:40:12Z
2022-04-20T01:41:37Z,42.805,6.029,13.3002,4.60046,2470.366,2022-4-20T03:43:15Z
2022-04-20T01:44:40Z,42.805,6.029,13.3007,4.60048,2470.366,2022-4-20T03:46:18Z
2022-04-20T01:47:43Z,42.805,6.029,13.3001,4.60041,2470.366,2022-4-20T03:49:22Z
2022-04-20T01:50:46Z,42.805,6.029,13.3005,4.60045,2470.366,2022-4-20T03:52:25Z
2022-04-20T01:53:49Z,42.805,6.029,13.3001,4.60043,2470.366,2022-4-20T03:55:28Z
2022-04-20T01:56:52Z,42.805,6.029,13.3001,4.60046,2470.357,2022-4-20T03:58:31Z
2022-04-20T01:59:55Z,42.805,6.029,13.3005,4.60048,2470.343,2022-4-20T04:01:34Z
2022-04-20T02:02:58Z,42.805,6.029,13.3004,4.60057,2470.38,2022-4-20T04:04:37Z
2022-04-20T02:06:02Z,42.805,6.029,13.3000,4.60044,2470.39,2022-4-20T04:07:40Z
2022-04-20T02:09:05Z,42.805,6.029,13.3004,4.60047,2470.366,2022-4-20T04:10:43Z
2022-04-20T02:12:08Z,42.805,6.029,13.3011,4.60069,2470.39,2022-4-20T04:13:47Z
2022-04-20T02:15:11Z,42.805,6.029,13.3004,4.60051,2470.366,2022-4-20T04:16:50Z
2022-04-20T02:18:14Z,42.805,6.029,13.3001,4.60059,2470.357,2022-4-20T04:19:53Z
2022-04-20T02:21:17Z,42.805,6.029,13.3002,4.60044,2470.38,2022-4-20T04:22:56Z
2022-04-20T02:24:20Z,42.805,6.029,13.3004,4.60046,2470.343,2022-4-20T04:25:59Z
2022-04-20T02:27:23Z,42.805,6.029,13.3009,4.60053,2470.334,2022-4-20T04:29:02Z
2022-04-20T02:30:26Z,42.805,6.029,13.3008,4.60046,2470.357,2022-4-20T04:32:05Z
2022-04-20T02:33:30Z,42.805,6.029,13.3000,4.60046,2470.32,2022-4-20T04:35:08Z
2022-04-20T02:36:33Z,42.805,6.029,13.3002,4.60044,2470.343,2022-4-20T04:38:12Z
2022-04-20T02:39:36Z,42.805,6.029,13.3009,4.60051,2470.334,2022-4-20T04:41:15Z
2022-04-20T02:42:39Z,42.805,6.029,13.3002,4.60044,2470.32,2022-4-20T04:44:18Z
2022-04-20T02:45:42Z,42.805,6.029,13.3006,4.60046,2470.297,2022-4-20T04:47:21Z
2022-04-20T02:48:45Z,42.805,6.029,13.3006,4.60050,2470.297,2022-4-20T04:50:24Z
2022-04-20T02:51:48Z,42.805,6.029,13.3006,4.60045,2470.334,2022-4-20T04:53:27Z
2022-04-20T02:54:51Z,42.805,6.029,13.3004,4.60044,2470.334,2022-4-20T04:56:30Z
2022-04-20T02:57:55Z,42.805,6.029,13.3006,4.60066,2470.32,2022-4-20T04:59:33Z
2022-04-20T03:00:58Z,42.805,6.029,13.3005,4.60060,2470.31,2022-4-20T05:02:37Z
2022-04-20T03:04:01Z,42.805,6.029,13.3005,4.60046,2470.31,2022-4-20T05:05:40Z
2022-04-20T03:07:04Z,42.805,6.029,13.3010,4.60053,2470.31,2022-4-20T05:08:43Z
2022-04-20T03:10:07Z,42.805,6.029,13.3004,4.60046,2470.31,2022-4-20T05:11:46Z
2022-04-20T03:13:10Z,42.805,6.029,13.3008,4.60046,2470.297,2022-4-20T05:14:49Z
2022-04-20T03:16:13Z,42.805,6.029,13.2999,4.60046,2470.273,2022-4-20T05:17:52Z
2022-04-20T03:19:16Z,42.805,6.029,13.3004,4.60046,2470.273,2022-4-20T05:20:55Z
2022-04-20T03:22:20Z,42.805,6.029,13.3004,4.60057,2470.31,2022-4-20T05:23:58Z
2022-04-20T03:25:23Z,42.805,6.029,13.3002,4.60046,2470.306,2022-4-20T05:27:01Z
2022-04-20T03:28:26Z,42.805,6.029,13.3003,4.60042,2470.297,2022-4-20T05:30:05Z
2022-04-20T03:31:29Z,42.805,6.029,13.3013,4.60051,2470.273,2022-4-20T05:33:08Z
2022-04-20T03:34:32Z,42.805,6.029,13.3002,4.60047,2470.297,2022-4-20T05:36:11Z
2022-04-20T03:37:35Z,42.805,6.029,13.3009,4.60046,2470.273,2022-4-20T05:39:14Z
2022-04-20T03:40:38Z,42.805,6.029,13.3006,4.60058,2470.287,2022-4-20T05:42:17Z
2022-04-20T03:43:41Z,42.805,6.029,13.3005,4.60053,2470.273,2022-4-20T05:45:20Z
2022-04-20T03:46:44Z,42.805,6.029,13.3005,4.60047,2470.297,2022-4-20T05:48:23Z
2022-04-20T03:49:48Z,42.805,6.029,13.3001,4.60043,2470.297,2022-4-20T05:51:26Z
2022-04-20T03:52:51Z,42.805,6.029,13.3000,4.60046,2470.297,2022-4-20T05:54:30Z
2022-04-20T03:55:54Z,42.805,6.029,13.3004,4.60059,2470.297,2022-4-20T05:57:33Z
2022-04-20T03:58:57Z,42.805,6.029,13.3004,4.60052,2470.273,2022-4-20T06:00:36Z
2022-04-20T04:02:00Z,42.805,6.029,13.3006,4.60052,2470.25,2022-4-20T06:03:39Z
2022-04-20T04:05:03Z,42.805,6.029,13.3007,4.60051,2470.297,2022-4-20T06:06:42Z
2022-04-20T04:08:06Z,42.805,6.029,13.3006,4.60051,2470.273,2022-4-20T06:09:45Z
2022-04-20T04:11:09Z,42.805,6.029,13.3001,4.60049,2470.273,2022-4-20T06:12:48Z
2022-04-20T04:14:13Z,42.805,6.029,13.3010,4.60052,2470.31,2022-4-20T06:15:51Z
2022-04-20T04:17:16Z,42.805,6.029,13.3004,4.60055,2470.287,2022-4-20T06:18:54Z
2022-04-20T04:20:19Z,42.805,6.029,13.3008,4.60054,2470.25,2022-4-20T06:21:58Z
2022-04-20T04:23:22Z,42.805,6.029,13.3006,4.60050,2470.31,2022-4-20T06:25:01Z
2022-04-20T04:26:25Z,42.805,6.029,13.3002,4.60053,2470.264,2022-4-20T06:28:04Z
2022-04-20T04:29:28Z,42.805,6.029,13.3006,4.60054,2470.25,2022-4-20T06:31:07Z
2022-04-20T04:32:31Z,42.805,6.029,13.3006,4.60044,2470.25,2022-4-20T06:34:10Z
2022-04-20T04:35:34Z,42.805,6.029,13.3004,4.60065,2470.273,2022-4-20T06:37:13Z
2022-04-20T04:38:38Z,42.805,6.029,13.3004,4.60061,2470.273,2022-4-20T06:40:16Z
2022-04-20T04:41:41Z,42.805,6.029,13.3004,4.60056,2470.287,2022-4-20T06:43:19Z
2022-04-20T04:44:44Z,42.805,6.029,13.3003,4.60046,2470.297,2022-4-20T06:46:23Z
2022-04-20T04:47:47Z,42.805,6.029,13.3008,4.60049,2470.273,2022-4-20T06:49:26Z
2022-04-20T04:50:50Z,42.805,6.029,13.3007,4.60050,2470.287,2022-4-20T06:52:29Z
2022-04-20T04:53:53Z,42.805,6.029,13.3000,4.60053,2470.273,2022-4-20T06:55:32Z
2022-04-20T04:56:56Z,42.805,6.029,13.3005,4.60049,2470.287,2022-4-20T06:58:35Z
2022-04-20T04:59:59Z,42.805,6.029,13.3006,4.60046,2470.273,2022-4-20T07:01:38Z
2022-04-20T05:03:02Z,42.805,6.029,13.3002,4.60045,2470.227,2022-4-20T07:04:41Z
2022-04-20T05:06:06Z,42.805,6.029,13.3003,4.60046,2470.273,2022-4-20T07:07:44Z
2022-04-20T05:09:09Z,42.805,6.029,13.3009,4.60049,2470.25,2022-4-20T07:10:48Z
2022-04-20T05:12:12Z,42.805,6.029,13.3003,4.60052,2470.264,2022-4-20T07:13:51Z
2022-04-20T05:15:15Z,42.805,6.029,13.3004,4.60073,2470.273,2022-4-20T07:16:54Z
2022-04-20T05:18:18Z,42.805,6.029,13.3015,4.60062,2470.264,2022-4-20T07:19:57Z
2022-04-20T05:21:21Z,42.805,6.029,13.3007,4.60051,2470.273,2022-4-20T07:23:00Z
2022-04-20T05:24:24Z,42.805,6.029,13.3009,4.60059,2470.25,2022-4-20T07:26:03Z
2022-04-20T05:27:27Z,42.805,6.029,13.3010,4.60052,2470.273,2022-4-20T07:29:06Z
2022-04-20T05:30:31Z,42.805,6.029,13.3005,4.60055,2470.287,2022-4-20T07:32:09Z
2022-04-20T05:33:34Z,42.805,6.029,13.3006,4.60056,2470.287,2022-4-20T07:35:13Z
2022-04-20T05:36:37Z,42.805,6.029,13.3014,4.60062,2470.25,2022-4-20T07:38:16Z
2022-04-20T05:39:40Z,42.805,6.029,13.3008,4.60062,2470.297,2022-4-20T07:41:19Z
2022-04-20T05:42:43Z,42.805,6.029,13.3010,4.60052,2470.264,2022-4-20T07:44:22Z
2022-04-20T05:45:46Z,42.805,6.029,13.3005,4.60056,2470.273,2022-4-20T07:47:25Z
2022-04-20T05:48:49Z,42.805,6.029,13.3011,4.60052,2470.273,2022-4-20T07:50:28Z
2022-04-20T05:51:52Z,42.805,6.029,13.3003,4.60051,2470.287,2022-4-20T07:53:31Z
2022-04-20T05:54:56Z,42.805,6.029,13.3005,4.60047,2470.25,2022-4-20T07:56:34Z
2022-04-20T05:57:59Z,42.805,6.029,13.3011,4.60060,2470.31,2022-4-20T07:59:37Z
2022-04-20T06:01:02Z,42.805,6.029,13.3005,4.60049,2470.273,2022-4-20T08:02:41Z
2022-04-20T06:04:05Z,42.805,6.029,13.3008,4.60046,2470.287,2022-4-20T08:05:44Z
2022-04-20T06:07:08Z,42.805,6.029,13.3006,4.60049,2470.287,2022-4-20T08:08:47Z
2022-04-20T06:10:11Z,42.805,6.029,13.3009,4.60050,2470.273,2022-4-20T08:11:50Z
2022-04-20T06:13:14Z,42.805,6.029,13.3006,4.60056,2470.287,2022-4-20T08:14:53Z
2022-04-20T06:16:17Z,42.805,6.029,13.3004,4.60049,2470.32,2022-4-20T08:17:56Z
2022-04-20T06:19:20Z,42.805,6.029,13.3019,4.60062,2470.273,2022-4-20T08:20:59Z
2022-04-20T06:22:24Z,42.805,6.029,13.3009,4.60062,2470.273,2022-4-20T08:24:02Z
2022-04-20T06:25:27Z,42.805,6.029,13.3011,4.60061,2470.31,2022-4-20T08:27:06Z
2022-04-20T06:28:30Z,42.805,6.029,13.3011,4.60055,2470.273,2022-4-20T08:30:09Z
2022-04-20T06:31:33Z,42.805,6.029,13.3015,4.60074,2470.334,2022-4-20T08:33:12Z
2022-04-20T06:34:36Z,42.805,6.029,13.3006,4.60064,2470.31,2022-4-20T08:36:15Z
2022-04-20T06:37:39Z,42.805,6.029,13.3009,4.60062,2470.31,2022-4-20T08:39:18Z
2022-04-20T06:40:42Z,42.805,6.029,13.3006,4.60050,2470.32,2022-4-20T08:42:21Z
2022-04-20T06:43:45Z,42.805,6.029,13.3011,4.60064,2470.343,2022-4-20T08:45:24Z
2022-04-20T06:46:49Z,42.805,6.029,13.3011,4.60062,2470.31,2022-4-20T08:48:27Z
2022-04-20T06:49:52Z,42.805,6.029,13.3011,4.60062,2470.273,2022-4-20T08:51:31Z
2022-04-20T06:52:55Z,42.805,6.029,13.3005,4.60062,2470.31,2022-4-20T08:54:34Z
2022-04-20T06:55:58Z,42.805,6.029,13.3011,4.60051,2470.32,2022-4-20T08:57:37Z
2022-04-20T06:59:01Z,42.805,6.029,13.3009,4.60064,2470.297,2022-4-20T09:00:40Z
2022-04-20T07:02:04Z,42.805,6.029,13.3009,4.60062,2470.297,2022-4-20T09:03:43Z
2022-04-20T07:05:07Z,42.805,6.029,13.3009,4.60072,2470.297,2022-4-20T09:06:46Z
2022-04-20T07:08:10Z,42.805,6.029,13.3002,4.60054,2470.31,2022-4-20T09:09:49Z
2022-04-20T07:11:14Z,42.805,6.029,13.3005,4.60054,2470.31,2022-4-20T09:12:52Z
2022-04-20T07:14:17Z,42.805,6.029,13.3009,4.60056,2470.32,2022-4-20T09:15:55Z
2022-04-20T07:17:20Z,42.805,6.029,13.3011,4.60062,2470.31,2022-4-20T09:18:59Z
2022-04-20T07:20:23Z,42.805,6.029,13.3010,4.60059,2470.343,2022-4-20T09:22:02Z
2022-04-20T07:23:26Z,42.805,6.029,13.3018,4.60072,2470.334,2022-4-20T09:25:05Z
2022-04-20T07:26:29Z,42.805,6.029,13.3010,4.60061,2470.334,2022-4-20T09:28:08Z
2022-04-20T07:29:32Z,42.805,6.029,13.2998,4.60049,2470.32,2022-4-20T09:31:11Z
2022-04-20T07:32:35Z,42.805,6.029,13.3007,4.60054,2470.31,2022-4-20T09:34:14Z
2022-04-20T07:35:38Z,42.805,6.029,13.3008,4.60051,2470.297,2022-4-20T09:37:17Z
2022-04-20T07:38:42Z,42.805,6.029,13.3011,4.60052,2470.343,2022-4-20T09:40:20Z
2022-04-20T07:41:45Z,42.805,6.029,13.3005,4.60057,2470.297,2022-4-20T09:43:24Z
2022-04-20T07:44:48Z,42.805,6.029,13.3004,4.60055,2470.334,2022-4-20T09:46:27Z
2022-04-20T07:47:51Z,42.805,6.029,13.3007,4.60057,2470.32,2022-4-20T09:49:30Z
2022-04-20T07:50:54Z,42.805,6.029,13.3009,4.60067,2470.357,2022-4-20T09:52:33Z
2022-04-20T07:53:57Z,42.805,6.029,13.3018,4.60086,2470.32,2022-4-20T09:55:36Z
2022-04-20T07:57:00Z,42.805,6.029,13.3006,4.60066,2470.32,2022-4-20T09:58:39Z
2022-04-20T08:00:03Z,42.805,6.029,13.3010,4.60074,2470.343,2022-4-20T10:01:42Z
2022-04-20T08:03:07Z,42.805,6.029,13.3011,4.60066,2470.343,2022-4-20T10:04:45Z
2022-04-20T08:06:10Z,42.805,6.029,13.3008,4.60067,2470.334,2022-4-20T10:07:49Z
2022-04-20T08:09:13Z,42.805,6.029,13.3009,4.60058,2470.343,2022-4-20T10:10:52Z
2022-04-20T08:12:16Z,42.805,6.029,13.3019,4.60064,2470.343,2022-4-20T10:13:55Z
2022-04-20T08:15:19Z,42.805,6.029,13.3011,4.60059,2470.297,2022-4-20T10:16:58Z
2022-04-20T08:18:22Z,42.805,6.029,13.3009,4.60067,2470.334,2022-4-20T10:20:01Z
2022-04-20T08:21:25Z,42.805,6.029,13.3006,4.60068,2470.343,2022-4-20T10:23:04Z
2022-04-20T08:24:28Z,42.805,6.029,13.3011,4.60062,2470.343,2022-4-20T10:26:07Z
2022-04-20T08:27:32Z,42.805,6.029,13.3004,4.60056,2470.334,2022-4-20T10:29:10Z
2022-04-20T08:30:35Z,42.805,6.029,13.3010,4.60060,2470.357,2022-4-20T10:32:14Z
2022-04-20T08:33:38Z,42.805,6.029,13.3006,4.60052,2470.357,2022-4-20T10:35:17Z
2022-04-20T08:36:41Z,42.805,6.029,13.3006,4.60055,2470.297,2022-4-20T10:38:20Z
2022-04-20T08:39:44Z,42.805,6.029,13.3011,4.60060,2470.343,2022-4-20T10:41:23Z
2022-04-20T08:42:47Z,42.805,6.029,13.3007,4.60082,2470.32,2022-4-20T10:44:26Z
2022-04-20T08:45:50Z,42.805,6.029,13.3006,4.60056,2470.343,2022-4-20T10:47:29Z
2022-04-20T08:48:53Z,42.805,6.029,13.3011,4.60054,2470.343,2022-4-20T10:50:32Z
2022-04-20T08:51:57Z,42.805,6.029,13.3004,4.60057,2470.343,2022-4-20T10:53:35Z
2022-04-20T08:55:00Z,42.805,6.029,13.3006,4.60069,2470.357,2022-4-20T10:56:39Z
2022-04-20T08:58:03Z,42.805,6.029,13.3008,4.60056,2470.357,2022-4-20T10:59:42Z
2022-04-20T09:01:06Z,42.805,6.029,13.3009,4.60049,2470.334,2022-4-20T11:02:45Z
2022-04-20T09:04:09Z,42.805,6.029,13.3009,4.60059,2470.32,2022-4-20T11:05:48Z
2022-04-20T09:07:12Z,42.805,6.029,13.3009,4.60067,2470.32,2022-4-20T11:08:51Z
2022-04-20T09:10:15Z,42.805,6.029,13.3004,4.60052,2470.343,2022-4-20T11:11:54Z
2022-04-20T09:13:18Z,42.805,6.029,13.3014,4.60063,2470.343,2022-4-20T11:14:57Z
2022-04-20T09:16:22Z,42.805,6.029,13.3009,4.60059,2470.366,2022-4-20T11:18:00Z
2022-04-20T09:19:25Z,42.805,6.029,13.3007,4.60087,2470.343,2022-4-20T11:21:04Z
2022-04-20T09:22:28Z,42.805,6.029,13.3004,4.60057,2470.334,2022-4-20T11:24:07Z
2022-04-20T09:25:31Z,42.805,6.029,13.3003,4.60065,2470.357,2022-4-20T11:27:10Z
2022-04-20T09:28:34Z,42.805,6.029,13.3011,4.60055,2470.32,2022-4-20T11:30:13Z
2022-04-20T09:31:37Z,42.805,6.029,13.3005,4.60060,2470.357,2022-4-20T11:33:16Z
2022-04-20T09:34:40Z,42.805,6.029,13.3005,4.60051,2470.32,2022-4-20T11:36:19Z
2022-04-20T09:37:43Z,42.805,6.029,13.3006,4.60056,2470.334,2022-4-20T11:39:22Z
2022-04-20T09:40:47Z,42.805,6.029,13.3007,4.60052,2470.357,2022-4-20T11:42:25Z
2022-04-20T09:43:50Z,42.805,6.029,13.3005,4.60065,2470.31,2022-4-20T11:45:29Z
2022-04-20T09:46:53Z,42.805,6.029,13.3008,4.60062,2470.32,2022-4-20T11:48:32Z
2022-04-20T09:49:56Z,42.805,6.029,13.3006,4.60056,2470.334,2022-4-20T11:51:35Z
2022-04-20T09:52:59Z,42.805,6.029,13.3014,4.60059,2470.273,2022-4-20T11:54:38Z
2022-04-20T09:56:02Z,42.805,6.029,13.3009,4.60064,2470.297,2022-4-20T11:57:41Z
2022-04-20T09:59:05Z,42.805,6.029,13.3011,4.60082,2470.273,2022-4-20T12:00:44Z
2022-04-20T10:02:08Z,42.805,6.029,13.3011,4.60062,2470.297,2022-4-20T12:03:47Z
2022-04-20T10:05:12Z,42.805,6.029,13.3007,4.60059,2470.357,2022-4-20T12:06:50Z
2022-04-20T10:08:15Z,42.805,6.029,13.3006,4.60049,2470.31,2022-4-20T12:09:54Z
2022-04-20T10:11:18Z,42.805,6.029,13.3008,4.60055,2470.297,2022-4-20T12:12:57Z
2022-04-20T10:14:21Z,42.805,6.029,13.3010,4.60062,2470.31,2022-4-20T12:16:00Z
2022-04-20T10:17:24Z,42.805,6.029,13.3008,4.60064,2470.297,2022-4-20T12:19:03Z
2022-04-20T10:20:27Z,42.805,6.029,13.3014,4.60064,2470.297,2022-4-20T12:22:06Z
2022-04-20T10:23:30Z,42.805,6.029,13.3009,4.60081,2470.32,2022-4-20T12:25:09Z
2022-04-20T10:26:33Z,42.805,6.029,13.3007,4.60058,2470.273,2022-4-20T12:28:12Z
2022-04-20T10:29:37Z,42.805,6.029,13.3015,4.60064,2470.31,2022-4-20T12:31:15Z
2022-04-20T10:32:40Z,42.805,6.029,13.3005,4.60068,2470.32,2022-4-20T12:34:19Z
2022-04-20T10:35:43Z,42.805,6.029,13.3011,4.60064,2470.273,2022-4-20T12:37:22Z
2022-04-20T10:38:46Z,42.805,6.029,13.3006,4.60067,2470.273,2022-4-20T12:40:25Z
2022-04-20T10:41:49Z,42.805,6.029,13.3009,4.60075,2470.227,2022-4-20T12:43:28Z
2022-04-20T10:44:52Z,42.805,6.029,13.3011,4.60059,2470.287,2022-4-20T12:46:31Z
2022-04-20T10:47:55Z,42.805,6.029,13.3009,4.60059,2470.264,2022-4-20T12:49:34Z
2022-04-20T10:50:58Z,42.805,6.029,13.3007,4.60074,2470.273,2022-4-20T12:52:37Z
2022-04-20T10:54:02Z,42.805,6.029,13.3009,4.60064,2470.25,2022-4-20T12:55:40Z
2022-04-20T10:57:05Z,42.805,6.029,13.3006,4.60058,2470.273,2022-4-20T12:58:44Z
2022-04-20T11:00:08Z,42.805,6.029,13.3011,4.60061,2470.273,2022-4-20T13:01:47Z
2022-04-20T11:03:11Z,42.805,6.029,13.3011,4.60057,2470.264,2022-4-20T13:04:50Z
2022-04-20T11:06:14Z,42.805,6.029,13.3006,4.60055,2470.25,2022-4-20T13:07:53Z
2022-04-20T11:09:17Z,42.805,6.029,13.3006,4.60060,2470.25,2022-4-20T13:10:56Z
2022-04-20T11:12:20Z,42.805,6.029,13.3010,4.60064,2470.24,2022-4-20T13:13:59Z
2022-04-20T11:15:23Z,42.805,6.029,13.3014,4.60062,2470.227,2022-4-20T13:17:02Z
2022-04-20T11:18:27Z,42.805,6.029,13.3006,4.60052,2470.25,2022-4-20T13:20:05Z
2022-04-20T11:21:30Z,42.805,6.029,13.3008,4.60055,2470.24,2022-4-20T13:23:09Z
2022-04-20T11:24:33Z,42.805,6.029,13.3008,4.60061,2470.25,2022-4-20T13:26:12Z
2022-04-20T11:27:36Z,42.805,6.029,13.3006,4.60062,2470.227,2022-4-20T13:29:15Z
2022-04-20T11:30:39Z,42.805,6.029,13.3010,4.60059,2470.25,2022-4-20T13:32:18Z
2022-04-20T11:33:42Z,42.805,6.029,13.3015,4.60055,2470.227,2022-4-20T13:35:21Z
2022-04-20T11:36:45Z,42.805,6.029,13.3014,4.60058,2470.203,2022-4-20T13:38:24Z
2022-04-20T11:39:49Z,42.805,6.029,13.3007,4.60061,2470.217,2022-4-20T13:41:27Z
2022-04-20T11:42:52Z,42.805,6.029,13.3005,4.60064,2470.203,2022-4-20T13:44:30Z
2022-04-20T11:45:55Z,42.805,6.029,13.3006,4.60056,2470.203,2022-4-20T13:47:34Z
2022-04-20T11:48:58Z,42.805,6.029,13.3014,4.60060,2470.24,2022-4-20T13:50:37Z
2022-04-20T11:52:01Z,42.805,6.029,13.3009,4.60067,2470.227,2022-4-20T13:53:40Z
2022-04-20T11:55:04Z,42.805,6.029,13.3005,4.60062,2470.203,2022-4-20T13:56:43Z
2022-04-20T11:58:07Z,42.805,6.029,13.3011,4.60065,2470.227,2022-4-20T13:59:46Z
2022-04-20T12:01:10Z,42.805,6.029,13.3006,4.60060,2470.203,2022-4-20T14:02:49Z
2022-04-20T12:04:14Z,42.805,6.029,13.3006,4.60062,2470.18,2022-4-20T14:05:52Z
2022-04-20T12:07:17Z,42.805,6.029,13.3016,4.60063,2470.194,2022-4-20T14:08:56Z
2022-04-20T12:10:20Z,42.805,6.029,13.3009,4.60069,2470.24,2022-4-20T14:11:59Z
2022-04-20T12:13:23Z,42.805,6.029,13.3007,4.60068,2470.217,2022-4-20T14:15:02Z
2022-04-20T12:16:26Z,42.805,6.029,13.3009,4.60062,2470.156,2022-4-20T14:18:05Z
2022-04-20T12:19:29Z,42.805,6.029,13.3009,4.60067,2470.203,2022-4-20T14:21:08Z
2022-04-20T12:22:32Z,42.805,6.029,13.3014,4.60064,2470.203,2022-4-20T14:24:11Z
2022-04-20T12:25:35Z,42.805,6.029,13.3012,4.60069,2470.18,2022-4-20T14:27:14Z
2022-04-20T12:28:39Z,42.805,6.029,13.3011,4.60057,2470.194,2022-4-20T14:30:17Z
2022-04-20T12:31:42Z,42.805,6.029,13.3009,4.60067,2470.156,2022-4-20T14:33:21Z
2022-04-20T12:34:45Z,42.805,6.029,13.3012,4.60064,2470.171,2022-4-20T14:36:24Z
2022-04-20T12:37:48Z,42.805,6.029,13.3011,4.60069,2470.133,2022-4-20T14:39:27Z
2022-04-20T12:40:51Z,42.805,6.029,13.3008,4.60058,2470.18,2022-4-20T14:42:30Z
2022-04-20T12:43:54Z,42.805,6.029,13.3012,4.60067,2470.156,2022-4-20T14:45:33Z
2022-04-20T12:46:57Z,42.805,6.029,13.3015,4.60061,2470.133,2022-4-20T14:48:36Z
2022-04-20T12:50:00Z,42.805,6.029,13.3007,4.60057,2470.194,2022-4-20T14:51:39Z
2022-04-20T12:53:04Z,42.805,6.029,13.3015,4.60059,2470.133,2022-4-20T14:54:42Z
2022-04-20T12:56:07Z,42.805,6.029,13.3011,4.60061,2470.18,2022-4-20T14:57:46Z
2022-04-20T12:59:10Z,42.805,6.029,13.3009,4.60061,2470.156,2022-4-20T15:00:49Z
2022-04-20T13:02:13Z,42.805,6.029,13.3006,4.60059,2470.147,2022-4-20T15:03:52Z
2022-04-20T13:05:16Z,42.805,6.029,13.3008,4.60052,2470.133,2022-4-20T15:06:55Z
2022-04-20T13:08:19Z,42.805,6.029,13.3009,4.60064,2470.133,2022-4-20T15:09:58Z
2022-04-20T13:11:22Z,42.805,6.029,13.3012,4.60069,2470.156,2022-4-20T15:13:01Z
2022-04-20T13:14:25Z,42.805,6.029,13.3009,4.60058,2470.156,2022-4-20T15:16:04Z
2022-04-20T13:17:29Z,42.805,6.029,13.3018,4.60066,2470.171,2022-4-20T15:19:07Z
2022-04-20T13:20:32Z,42.805,6.029,13.3008,4.60053,2470.133,2022-4-20T15:22:11Z
2022-04-20T13:23:35Z,42.805,6.029,13.3009,4.60055,2470.156,2022-4-20T15:25:14Z
2022-04-20T13:26:38Z,42.805,6.029,13.3007,4.60066,2470.133,2022-4-20T15:28:17Z
2022-04-20T13:29:41Z,42.805,6.029,13.3013,4.60072,2470.147,2022-4-20T15:31:20Z
2022-04-20T13:32:44Z,42.805,6.029,13.3006,4.60057,2470.133,2022-4-20T15:34:23Z
2022-04-20T13:35:47Z,42.805,6.029,13.3006,4.60060,2470.11,2022-4-20T15:37:26Z
2022-04-20T13:38:50Z,42.805,6.029,13.3014,4.60054,2470.11,2022-4-20T15:40:29Z
2022-04-20T13:41:54Z,42.805,6.029,13.3014,4.60060,2470.124,2022-4-20T15:43:32Z
2022-04-20T13:44:57Z,42.805,6.029,13.3010,4.60068,2470.156,2022-4-20T15:46:36Z
2022-04-20T13:48:00Z,42.805,6.029,13.3021,4.60062,2470.156,2022-4-20T15:49:39Z
2022-04-20T13:51:03Z,42.805,6.029,13.3007,4.60070,2470.124,2022-4-20T15:52:42Z
2022-04-20T13:54:06Z,42.805,6.029,13.3013,4.60062,2470.11,2022-4-20T15:55:45Z
2022-04-20T13:57:09Z,42.805,6.029,13.3009,4.60057,2470.11,2022-4-20T15:58:48Z
2022-04-20T14:00:12Z,42.805,6.029,13.3011,4.60052,2470.147,2022-4-20T16:01:51Z
2022-04-20T14:03:15Z,42.805,6.029,13.3012,4.60059,2470.147,2022-4-20T16:04:54Z
2022-04-20T14:06:19Z,42.805,6.029,13.3015,4.60067,2470.11,2022-4-20T16:07:57Z
2022-04-20T14:09:22Z,42.805,6.029,13.3009,4.60058,2470.087,2022-4-20T16:11:01Z
2022-04-20T14:12:25Z,42.805,6.029,13.3011,4.60067,2470.11,2022-4-20T16:14:04Z
2022-04-20T14:15:28Z,42.805,6.029,13.3005,4.60058,2470.087,2022-4-20T16:17:07Z
2022-04-20T14:18:31Z,42.805,6.029,13.3009,4.60055,2470.133,2022-4-20T16:20:10Z
2022-04-20T14:21:34Z,42.805,6.029,13.3011,4.60064,2470.1,2022-4-20T16:23:13Z
2022-04-20T14:24:37Z,42.805,6.029,13.3017,4.60062,2470.124,2022-4-20T16:26:16Z
2022-04-20T14:27:40Z,42.805,6.029,13.3015,4.60059,2470.087,2022-4-20T16:29:19Z
2022-04-20T14:30:44Z,42.805,6.029,13.3009,4.60056,2470.1,2022-4-20T16:32:22Z
2022-04-20T14:33:47Z,42.805,6.029,13.3013,4.60078,2470.063,2022-4-20T16:35:26Z
2022-04-20T14:36:50Z,42.805,6.029,13.3015,4.60065,2470.087,2022-4-20T16:38:29Z
2022-04-20T14:39:53Z,42.805,6.029,13.3019,4.60066,2470.124,2022-4-20T16:41:32Z
2022-04-20T14:42:56Z,42.805,6.029,13.3009,4.60058,2470.087,2022-4-20T16:44:35Z
2022-04-20T14:45:59Z,42.805,6.029,13.3013,4.60064,2470.087,2022-4-20T16:47:38Z
2022-04-20T14:49:02Z,42.805,6.029,13.3013,4.60089,2470.087,2022-4-20T16:50:41Z
2022-04-20T14:52:05Z,42.805,6.029,13.3014,4.60070,2470.087,2022-4-20T16:53:44Z
2022-04-20T14:55:09Z,42.805,6.029,13.3017,4.60073,2470.087,2022-4-20T16:56:47Z
2022-04-20T14:58:12Z,42.805,6.029,13.3011,4.60065,2470.087,2022-4-20T16:59:51Z
2022-04-20T15:01:15Z,42.805,6.029,13.3013,4.60067,2470.087,2022-4-20T17:02:54Z
2022-04-20T15:04:18Z,42.805,6.029,13.3005,4.60064,2470.063,2022-4-20T17:05:57Z
2022-04-20T15:07:21Z,42.805,6.029,13.3014,4.60066,2470.087,2022-4-20T17:09:00Z
2022-04-20T15:10:24Z,42.805,6.029,13.3011,4.60059,2470.063,2022-4-20T17:12:03Z
2022-04-20T15:13:27Z,42.805,6.029,13.3016,4.60066,2470.063,2022-4-20T17:15:06Z